Вернуться в каталог

STARLINK-33645

АктивенСвязьVLEO
NORAD 63412·PAYLOAD·🇺🇸 United States

Запущен Mar 31, 2025 с Cape Canaveral Space Force Station

Loading…

Ближайшие Пролёты (ближайшие 24 часа)

TLE

СвежийSource: CelesTrak SupGP

Эпоха: Sep 15, 2026, 03:04 UTC

1 63412C 25065P   26258.12826389  .00047484  00000+0  17197-2 0  2587
2 63412  43.0002 120.4481 0001443 275.3660 100.6338 15.27557564    17

Отслеживайте STARLINK-33645 в реальном времени с AllMySat

Download on the App Store